Wetbulb
54.74 54.19 53.52 53.28 52.79 52.50 52.67 53.09 53.16 53.69 54.32 55.19 55.36 55.38 55.67 55.67 56.90 50.19 45.55 49.73 51.88 57.33 54.90 43.69 43.35 42.74 41.38 39.37 38.51 35.72 31.70 28.80 31.47 31.56 34.20 35.69 35.42 37.98 38.54 40.15 45.84 49.17 47.21 51.31 57.63
55.38 55.38 55.05 54.24 53.62 53.23 52.59 52.68 53.09 52.91 53.13 53.95 54.65 54.53 54.73 55.22 51.26 46.96 53.36 56.48 58.77 56.63 41.94 41.28 40.64 41.53 37.98 37.36 37.41 34.45 29.97 32.39 34.97 33.79 33.31 34.97 34.15 35.56 38.82 38.00 41.47 45.66 50.67 53.70 57.49
53.53 53.83 54.32 55.14 55.02 54.08 53.17 52.80 52.68 52.62 52.56 52.68 54.27 53.95 54.58 54.08 44.45 45.10 56.12 56.71 59.38 54.58 45.51 43.57 42.64 41.47 37.10 36.00 35.82 32.59 31.38 33.15 35.59 36.16 36.98 35.50 34.89 35.37 34.36 35.53 39.41 43.28 49.83 53.39 56.43
51.86 52.29 52.50 52.90 53.67 55.00 54.18 53.07 52.87 52.54 52.56 52.27 52.58 53.92 54.20 49.27 37.04 45.80 56.55 57.32 57.79 49.54 45.82 42.64 40.09 37.85 34.76 35.08 37.24 32.25 35.21 34.40 37.29 38.15 36.55 34.88 35.82 35.32 35.67 37.65 38.83 40.43 51.68 53.71 54.74
51.00 51.30 51.14 51.26 52.11 53.23 54.33 54.35 53.13 52.86 52.21 52.40 52.13 52.68 47.69 42.06 42.55 51.17 56.86 57.10 50.77 47.22 43.14 40.31 38.07 37.19 34.62 34.95 36.91 33.34 34.37 36.32 37.06 36.81 36.05 37.12 36.28 35.63 36.32 38.79 38.75 45.06 53.06 53.35 53.96
48.90 49.26 49.96 49.96 50.33 51.55 52.70 53.50 54.22 53.35 53.11 52.50 52.05 52.70 43.49 34.35 48.10 49.92 51.29 49.45 48.16 45.60 41.88 40.83 38.95 39.88 36.21 35.15 35.19 35.41 35.96 35.87 36.60 36.31 36.13 35.49 33.79 35.22 36.94 36.83 37.98 38.11 48.50 52.47 54.00
47.49 47.59 47.94 48.65 49.70 50.03 50.77 52.23 52.66 54.04 52.96 52.52 52.09 48.35 42.19 38.45 46.49 46.90 46.61 48.05 47.92 45.76 40.78 42.79 41.51 38.70 37.90 34.17 37.17 35.72 31.80 32.85 34.88 34.75 35.64 35.43 33.35 33.44 38.54 36.41 37.74 36.85 36.52 46.53 53.10
46.80 47.72 47.15 47.40 47.90 49.49 49.51 49.83 51.30 51.70 53.58 52.56 52.06 45.40 38.37 46.22 46.46 45.49 46.25 45.89 48.00 46.66 43.88 43.39 43.15 40.13 37.39 37.29 34.95 31.93 30.21 25.99 32.12 34.08 35.19 35.49 30.25 34.79 34.45 35.37 36.54 35.51 35.35 36.03 41.96
47.32 47.02 47.23 47.14 47.42 47.74 48.60 49.04 49.63 50.88 52.42 52.97 46.16 42.51 35.58 46.52 44.29 46.33 46.79 44.82 46.26 45.51 44.36 45.85 41.90 37.23 36.85 32.29 28.23 27.43 23.88 25.12 30.13 33.38 32.01 31.37 29.13 33.63 32.87 33.12 33.58 33.81 34.46 35.32 36.60
47.89 47.42 47.23 46.85 46.62 46.56 47.29 48.36 48.25 49.07 49.79 49.12 46.92 38.17 38.09 36.23 43.47 47.02 46.94 47.58 43.68 41.10 40.62 39.20 35.69 31.88 30.51 29.60 24.21 24.92 24.84 25.47 25.98 29.91 30.68 28.48 29.69 33.16 34.16 32.94 34.16 34.02 34.35 34.89 36.20
47.59 47.56 47.35 46.52 46.72 46.73 44.31 41.40 37.19 37.79 43.12 38.15 35.94 35.92 36.13 42.77 45.22 43.58 45.43 44.55 42.66 38.92 34.05 35.10 29.84 27.09 30.77 32.82 30.98 29.10 26.37 26.05 26.63 30.75 30.54 29.64 30.09 34.15 33.56 31.82 33.96 35.02 34.26 34.65 36.87
47.43 47.38 47.21 46.55 46.40 46.15 41.83 35.80 37.93 40.31 31.86 39.49 39.28 38.75 40.66 41.15 36.31 40.53 45.72 40.20 38.97 34.65 34.59 31.17 28.27 32.25 33.52 33.32 31.11 29.04 27.30 26.17 28.70 30.67 30.37 28.49 29.76 33.56 32.71 33.30 34.07 36.81 36.57 36.11 35.93
46.91 46.91 46.86 45.89 46.18 41.54 36.62 36.45 42.93 41.73 31.83 34.16 38.47 37.46 37.42 38.83 34.44 35.73 42.18 39.83 35.17 34.80 32.01 32.76 31.28 34.29 33.01 31.20 30.48 29.43 28.36 27.36 28.53 28.75 28.72 27.41 26.92 31.85 33.59 33.12 35.86 35.27 37.95 38.75 38.09
45.91 46.61 46.18 45.56 39.29 37.25 34.92 41.40 42.85 41.45 24.43 28.02 33.47 36.66 38.25 38.40 32.79 41.49 43.10 41.30 34.22 33.26 34.66 32.84 36.23 33.10 29.87 30.43 31.86 27.47 31.19 30.72 30.01 27.59 23.66 26.07 21.69 28.09 32.40 32.48 32.82 34.64 34.80 37.33 39.03
45.46 46.01 46.12 45.42 36.53 34.42 37.39 41.40 40.58 37.58 8.93 28.77 31.02 40.67 38.27 34.50 34.59 35.44 43.36 41.71 33.01 32.02 32.35 30.15 30.79 29.71 28.79 31.08 33.11 29.69 33.04 31.63 30.01 27.16 25.46 24.81 22.06 26.95 28.46 30.77 34.77 38.72 38.26 35.95 36.62
45.15 45.57 45.77 40.24 36.19 37.41 40.54 39.66 35.60 18.83 9.05 25.90 32.33 31.32 31.78 33.90 33.35 36.73 37.57 41.51 38.04 33.17 31.82 32.04 33.42 36.17 33.67 32.28 33.92 33.56 31.85 31.27 29.81 27.22 17.91 26.66 25.65 25.27 30.99 34.10 36.24 37.35 35.89 36.29 35.52
44.96 45.06 43.67 40.97 33.33 39.49 39.13 34.93 9.49 9.39 25.36 24.09 25.94 30.87 29.71 29.21 30.31 32.44 32.17 33.23 30.69 27.13 27.46 29.24 28.63 31.20 34.06 30.12 30.35 30.94 28.37 14.34 18.13 13.57 20.16 24.01 23.66 32.22 33.97 35.25 36.31 37.94 35.83 35.21 35.34
45.06 44.79 42.16 41.49 40.06 38.96 35.48 23.62 7.26 16.63 19.42 25.72 27.04 24.12 26.82 29.49 29.08 28.92 31.34 28.34 34.04 30.33 26.39 25.23 23.00 29.11 32.10 32.16 27.78 27.65 29.97 20.12 13.34 13.01 19.47 24.16 22.18 28.12 34.34 39.21 37.28 36.61 35.78 35.27 35.21
44.44 37.10 35.63 38.10 40.48 38.88 29.14 13.71 8.27 17.65 23.03 21.72 22.45 19.78 26.14 28.63 28.23 27.69 28.60 29.20 32.25 33.50 21.94 24.82 25.03 31.36 31.76 32.79 34.04 27.85 26.79 30.98 21.12 12.93 18.65 23.10 25.54 32.28 34.98 35.29 35.17 35.46 34.75 35.32 35.59
37.61 34.96 34.89 38.90 40.45 35.54 23.81 16.62 11.22 24.31 24.49 24.15 16.21 20.01 16.21 20.31 26.03 25.89 26.46 30.98 31.38 35.46 34.59 28.06 20.51 29.44 31.48 33.49 32.36 32.02 34.00 26.01 22.52 11.77 13.39 20.06 21.35 27.69 31.60 34.79 34.30 34.44 35.20 35.26 34.09
37.01 29.89 31.58 38.12 38.65 28.95 16.33 8.26 18.11 26.07 26.32 21.67 20.45 20.79 20.48 21.10 27.44 24.93 25.49 29.86 30.85 33.56 36.44 30.76 26.71 25.21 29.68 28.32 29.03 27.47 28.89 27.97 26.99 24.40 18.17 13.55 22.07 30.12 36.19 35.83 34.85 35.03 35.88 35.98 35.59
33.02 19.99 31.55 36.64 24.74 12.35 10.23 9.81 26.09 23.33 26.34 24.43 24.53 22.20 20.51 22.87 25.34 26.86 25.78 26.00 31.08 32.90 30.32 33.55 29.48 19.03 24.09 30.59 32.66 31.58 30.32 28.67 26.75 20.66 19.61 20.55 22.15 31.11 32.43 34.17 35.07 35.12 36.23 35.01 36.22
29.14 23.00 33.74 34.76 16.83 16.73 14.41 12.59 20.09 22.09 23.33 24.49 23.05 26.63 26.16 24.88 23.00 23.65 24.85 30.26 30.55 30.91 30.03 33.43 26.85 14.46 18.58 27.69 29.49 30.06 29.62 33.43 27.65 27.21 21.82 20.97 24.16 32.14 32.68 33.34 33.54 34.18 33.95 33.84 36.18
29.73 20.87 23.02 30.23 18.32 14.33 8.32 14.59 12.10 22.67 23.20 26.04 24.68 26.37 25.60 23.87 25.05 22.30 23.45 27.80 30.58 30.98 33.08 32.87 28.41 25.60 20.86 24.79 27.51 22.83 29.38 31.24 29.95 21.69 26.37 27.30 24.38 28.98 31.21 32.43 32.16 32.49 34.34 35.04 36.40
30.26 23.68 18.75 11.60 19.31 20.01 21.77 17.98 15.65 16.39 24.31 27.48 24.10 26.81 23.55 20.19 22.16 22.23 24.47 25.92 29.02 30.14 29.64 27.13 19.67 21.87 28.10 27.54 29.71 28.13 27.91 27.98 28.40 30.28 23.98 27.94 23.39 30.32 30.06 31.57 31.25 31.79 33.91 35.89 34.83
26.65 20.76 24.39 17.77 19.45 19.52 22.36 20.45 17.66 19.15 21.29 21.33 22.55 24.41 24.50 21.52 22.76 21.13 24.19 24.18 22.77 27.82 26.53 27.71 20.06 20.71 24.85 26.47 27.99 25.21 28.70 29.39 28.47 30.39 29.75 24.14 24.69 29.88 31.80 32.78 32.58 33.47 33.04 33.52 36.32
31.31 31.65 27.62 22.36 21.29 19.90 18.87 20.38 20.86 23.31 24.15 26.10 25.12 23.47 23.83 24.99 26.08 26.59 27.68 27.23 28.17 25.93 24.04 23.86 19.97 17.48 13.85 20.70 22.84 22.75 26.21 28.07 29.84 28.79 30.70 23.05 29.66 31.54 32.44 33.88 33.06 33.12 34.59 34.55 35.20
MSLP
1021.95 1021.88 1021.69 1021.57 1021.46 1021.36 1021.17 1020.90 1020.48 1020.32 1019.93 1019.47 1019.01 1018.53 1018.03 1017.48 1016.80 1016.15 1015.47 1013.75 1013.66 1013.26 1013.13 1013.06 1012.93 1012.98 1013.56 1013.93 1014.43 1014.68 1015.55 1015.74 1014.72 1014.28 1012.97 1012.14 1011.83 1011.25 1011.16 1011.18 1011.37 1011.77 1012.11 1012.46 1012.79
1022.17 1021.95 1021.75 1021.42 1021.37 1021.30 1021.02 1020.89 1020.63 1020.36 1019.99 1019.45 1019.06 1018.54 1017.95 1017.40 1016.74 1015.35 1013.35 1013.20 1013.31 1013.25 1013.16 1013.18 1013.00 1013.19 1013.82 1014.12 1014.49 1014.85 1015.28 1014.52 1013.40 1012.97 1012.48 1012.16 1011.91 1011.64 1011.48 1011.44 1011.68 1011.97 1012.41 1012.72 1013.02
1022.51 1022.24 1021.89 1021.65 1021.35 1021.02 1020.81 1020.68 1020.53 1020.32 1020.08 1019.54 1019.13 1018.62 1018.09 1017.50 1016.84 1013.97 1013.04 1013.14 1013.12 1013.31 1013.23 1013.17 1013.03 1013.19 1013.56 1014.15 1014.28 1014.67 1014.49 1013.71 1012.90 1012.39 1012.13 1012.14 1011.97 1011.72 1011.71 1011.67 1011.42 1011.62 1012.26 1012.98 1013.24
1022.88 1022.49 1022.27 1022.02 1021.57 1021.03 1020.68 1020.41 1020.21 1020.16 1019.97 1019.70 1019.03 1018.75 1018.19 1017.80 1016.57 1013.52 1013.26 1013.14 1013.27 1013.48 1013.51 1013.32 1013.23 1013.42 1013.71 1013.85 1014.01 1014.33 1013.72 1013.53 1012.74 1012.30 1012.29 1012.19 1011.98 1011.89 1011.72 1011.25 1011.11 1011.46 1011.86 1012.80 1013.16
1023.00 1022.77 1022.46 1022.16 1021.72 1021.25 1020.67 1020.19 1019.93 1019.78 1019.71 1019.62 1019.16 1018.75 1018.66 1017.81 1015.55 1013.65 1013.45 1013.41 1013.45 1013.66 1013.57 1013.53 1013.34 1013.42 1013.62 1013.50 1013.66 1013.96 1013.49 1013.27 1012.87 1012.57 1012.52 1012.41 1012.22 1012.21 1011.59 1011.26 1011.41 1011.76 1012.19 1012.65 1012.93
1023.19 1022.96 1022.60 1022.25 1021.88 1021.50 1020.76 1020.29 1019.83 1019.53 1019.43 1019.18 1019.02 1018.87 1019.01 1018.00 1014.53 1014.08 1013.80 1013.73 1013.66 1013.68 1013.51 1013.48 1013.09 1012.95 1013.16 1013.25 1013.42 1013.21 1013.28 1013.18 1012.98 1012.82 1012.70 1012.72 1012.59 1012.49 1010.93 1010.95 1011.57 1012.00 1012.23 1012.42 1012.56
1023.14 1022.93 1022.56 1022.22 1021.86 1021.38 1020.82 1020.32 1019.89 1019.45 1019.06 1018.92 1018.68 1018.69 1018.39 1016.48 1014.68 1014.52 1014.49 1014.07 1013.71 1013.58 1013.50 1013.24 1013.02 1012.99 1012.93 1013.12 1012.90 1013.16 1013.49 1013.34 1013.03 1012.93 1012.95 1012.88 1012.70 1012.06 1010.70 1011.12 1011.55 1011.83 1012.07 1012.21 1012.14
1023.10 1022.64 1022.26 1022.06 1021.59 1021.40 1020.80 1020.41 1019.80 1019.23 1018.85 1018.54 1018.44 1018.54 1016.90 1015.33 1014.97 1014.36 1014.16 1014.01 1013.60 1013.50 1013.34 1013.00 1013.00 1013.13 1013.10 1013.06 1013.12 1013.57 1013.89 1013.80 1012.79 1012.91 1012.70 1012.88 1011.97 1010.80 1010.63 1011.30 1011.26 1011.57 1011.85 1011.92 1011.67
1022.89 1022.59 1022.21 1021.98 1021.58 1021.24 1020.62 1020.06 1019.35 1018.72 1018.48 1018.33 1018.41 1018.55 1016.09 1014.71 1014.39 1013.41 1013.99 1013.77 1013.51 1013.23 1013.37 1013.13 1013.13 1013.29 1013.30 1013.56 1013.92 1013.89 1014.18 1014.05 1013.56 1012.87 1012.88 1013.05 1011.92 1010.48 1010.59 1011.15 1011.09 1011.28 1011.25 1011.32 1011.20
1022.52 1022.23 1021.94 1021.76 1021.48 1021.11 1020.34 1019.81 1018.85 1018.03 1017.85 1017.94 1017.87 1018.49 1016.10 1014.38 1013.48 1013.09 1013.01 1013.32 1013.48 1013.41 1013.58 1013.55 1013.55 1013.56 1013.53 1013.48 1012.93 1013.73 1014.29 1013.94 1013.52 1012.92 1013.07 1013.05 1012.22 1010.98 1010.88 1010.98 1010.96 1011.03 1010.69 1010.61 1010.51
1022.14 1021.87 1021.68 1021.52 1021.06 1020.83 1020.59 1020.15 1018.97 1018.10 1017.83 1016.71 1016.16 1015.37 1014.52 1013.83 1013.20 1012.98 1013.07 1013.29 1013.48 1013.71 1013.55 1013.72 1013.66 1012.45 1012.87 1012.91 1012.73 1012.89 1013.04 1013.14 1012.92 1012.46 1012.78 1012.70 1012.16 1011.07 1010.60 1010.92 1010.58 1010.02 1010.00 1009.65 1009.10
1021.95 1021.59 1021.40 1021.26 1020.94 1020.71 1020.78 1020.89 1020.39 1020.26 1017.55 1016.38 1015.26 1014.15 1013.81 1013.57 1013.59 1013.08 1013.04 1013.19 1013.04 1012.73 1013.50 1013.98 1011.73 1012.40 1012.76 1012.93 1012.89 1012.88 1012.95 1012.82 1012.56 1012.38 1012.72 1012.34 1011.79 1010.48 1010.10 1009.63 1009.33 1008.84 1008.53 1008.33 1008.13
1021.79 1021.46 1021.23 1020.93 1020.62 1020.71 1020.85 1020.92 1020.62 1020.67 1018.35 1014.81 1014.35 1013.05 1013.51 1013.79 1012.64 1012.15 1012.95 1012.24 1012.24 1012.67 1012.08 1011.79 1011.60 1012.12 1012.22 1012.51 1012.67 1012.22 1012.15 1012.42 1012.34 1012.49 1012.62 1012.58 1011.50 1010.01 1008.61 1008.27 1007.71 1007.61 1007.14 1006.95 1006.97
1021.25 1020.93 1020.80 1020.65 1020.76 1020.78 1021.04 1020.58 1020.66 1020.68 1017.82 1013.10 1012.26 1010.95 1011.74 1012.40 1010.73 1010.87 1011.21 1011.46 1011.69 1011.19 1012.34 1012.22 1011.30 1011.49 1011.53 1011.38 1011.81 1012.02 1011.95 1012.52 1012.76 1013.05 1013.44 1012.90 1011.50 1009.74 1008.27 1007.55 1006.85 1006.26 1006.18 1005.81 1005.62
1020.73 1020.41 1020.18 1020.25 1020.49 1020.83 1020.85 1020.79 1020.74 1020.54 1016.59 1011.80 1010.32 1010.03 1010.33 1011.00 1009.77 1008.91 1009.51 1010.59 1010.28 1010.57 1011.37 1009.98 1010.37 1011.07 1011.20 1010.15 1011.32 1011.25 1011.60 1012.40 1013.16 1013.68 1013.79 1013.31 1013.07 1008.52 1007.98 1007.13 1005.82 1004.74 1004.60 1004.81 1004.86
1019.85 1019.83 1019.94 1020.04 1020.45 1020.45 1020.54 1020.88 1020.88 1020.82 1016.12 1012.59 1011.38 1010.74 1010.77 1010.67 1009.89 1009.16 1009.06 1009.36 1009.67 1010.33 1010.13 1009.89 1009.59 1009.41 1008.77 1010.05 1010.64 1011.24 1012.26 1013.25 1013.95 1014.56 1014.36 1012.42 1012.27 1007.70 1006.84 1005.45 1004.41 1003.51 1003.68 1003.99 1004.42
1019.62 1019.33 1019.42 1019.81 1019.74 1020.15 1020.65 1021.16 1021.33 1019.86 1016.49 1013.59 1013.01 1011.50 1010.72 1010.23 1010.13 1009.66 1009.24 1008.68 1007.84 1008.97 1009.04 1009.77 1009.69 1009.04 1008.74 1009.88 1010.73 1010.74 1011.87 1013.92 1015.11 1015.43 1013.36 1012.31 1011.73 1006.41 1004.90 1004.13 1003.37 1003.08 1003.48 1003.71 1004.09
1019.18 1018.88 1018.78 1018.93 1019.27 1019.90 1020.89 1021.75 1020.90 1018.87 1017.53 1014.71 1013.90 1012.68 1010.29 1009.59 1009.68 1009.47 1008.90 1008.28 1007.67 1007.65 1008.10 1008.83 1009.43 1008.20 1007.87 1007.94 1008.93 1010.31 1010.65 1011.84 1013.37 1013.92 1013.40 1012.67 1009.90 1005.20 1003.73 1002.48 1002.75 1002.81 1003.24 1003.53 1003.93
1018.79 1018.89 1018.69 1018.47 1018.77 1019.56 1020.54 1020.70 1020.01 1018.23 1016.90 1014.95 1014.27 1013.40 1010.18 1009.50 1009.38 1009.30 1008.75 1007.93 1007.57 1007.49 1008.10 1008.08 1007.69 1006.83 1007.04 1007.22 1007.66 1009.66 1009.82 1010.18 1011.99 1013.33 1013.16 1011.11 1008.01 1005.17 1003.37 1002.45 1002.23 1002.61 1003.06 1003.40 1003.82
1019.12 1019.12 1018.22 1017.66 1018.23 1019.34 1019.85 1019.88 1018.91 1017.57 1016.59 1016.31 1015.37 1015.28 1013.34 1012.00 1009.21 1009.16 1008.73 1007.29 1007.41 1007.48 1007.68 1007.57 1007.42 1006.81 1006.97 1007.01 1007.39 1007.06 1007.87 1009.63 1010.98 1012.29 1012.15 1009.93 1008.07 1005.14 1003.07 1002.17 1002.13 1002.47 1002.74 1003.13 1003.73
1019.08 1018.79 1018.08 1017.63 1018.31 1019.13 1019.73 1019.39 1018.12 1016.99 1016.33 1016.12 1014.99 1014.22 1013.15 1011.92 1009.06 1008.57 1008.13 1008.34 1007.70 1007.12 1007.76 1007.92 1007.68 1007.48 1006.92 1006.01 1005.14 1006.68 1007.02 1007.71 1008.49 1009.82 1009.81 1009.36 1005.94 1003.54 1002.19 1001.69 1001.99 1002.11 1002.41 1002.89 1003.71
1018.95 1018.95 1018.04 1017.79 1019.27 1019.60 1019.71 1018.73 1017.82 1016.78 1015.92 1015.52 1014.74 1014.62 1013.48 1011.34 1009.73 1008.71 1008.60 1008.97 1008.88 1008.05 1007.34 1007.47 1007.81 1007.90 1006.78 1005.77 1005.28 1005.21 1005.53 1006.33 1007.46 1008.75 1008.60 1007.84 1005.05 1002.84 1002.57 1002.32 1002.18 1002.19 1002.78 1003.47 1004.21
1018.41 1018.41 1018.04 1018.12 1018.84 1019.46 1019.08 1018.40 1017.61 1016.44 1015.39 1014.78 1013.75 1012.98 1011.99 1011.23 1010.30 1009.10 1009.34 1009.83 1009.48 1008.49 1007.79 1007.17 1006.99 1007.88 1007.57 1006.89 1005.91 1005.07 1004.93 1005.10 1005.61 1006.27 1007.08 1006.73 1004.29 1002.97 1002.74 1002.73 1002.79 1002.91 1003.54 1004.18 1004.93
1017.97 1018.25 1018.19 1017.89 1017.91 1018.70 1018.85 1018.21 1017.41 1015.60 1014.86 1013.83 1012.99 1012.70 1011.77 1011.20 1010.51 1009.32 1009.54 1010.25 1009.75 1009.46 1008.86 1007.86 1007.44 1006.80 1005.89 1004.94 1005.53 1005.24 1004.78 1004.67 1005.07 1005.78 1004.70 1004.68 1004.35 1003.65 1003.49 1003.60 1003.88 1004.23 1004.62 1004.87 1005.63
1017.59 1017.44 1017.54 1017.86 1017.63 1017.71 1017.79 1017.34 1016.35 1015.40 1014.26 1013.37 1012.17 1010.95 1010.88 1011.14 1010.71 1009.94 1010.10 1010.04 1009.91 1009.95 1009.43 1009.39 1009.31 1008.30 1006.86 1006.26 1005.44 1005.30 1005.15 1005.05 1005.04 1003.92 1004.98 1003.96 1004.67 1003.72 1004.06 1004.02 1004.49 1004.80 1005.29 1005.55 1006.05
1017.05 1017.18 1017.21 1016.89 1016.85 1016.89 1016.57 1015.56 1015.01 1014.22 1014.15 1012.91 1012.41 1011.59 1011.61 1010.79 1010.72 1010.49 1010.14 1009.98 1009.92 1010.15 1010.07 1010.56 1010.35 1010.04 1008.02 1007.81 1006.97 1006.40 1005.34 1005.17 1004.90 1004.42 1004.64 1004.60 1004.55 1004.07 1004.28 1004.28 1004.75 1004.99 1005.67 1005.95 1005.96
1015.81 1015.76 1015.82 1015.07 1015.58 1015.69 1014.64 1014.13 1013.56 1013.41 1012.82 1012.23 1011.85 1011.36 1011.01 1010.24 1010.40 1010.39 1010.38 1010.33 1010.04 1009.88 1010.49 1011.05 1011.25 1011.22 1010.49 1009.68 1008.57 1007.51 1006.11 1005.13 1004.17 1004.12 1003.66 1004.19 1004.06 1003.96 1004.38 1004.87 1005.01 1005.26 1005.59 1005.77 1005.68
Wind_Speed
14 13 12 11 12 13 14 15 15 17 18 19 20 22 22 23 24 4 6 10 5 4 1 2 2 4 3 2 2 3 4 4 6 7 6 2 2 2 4 3 0 1 2 1 11
19 17 17 14 13 13 13 14 15 16 17 18 19 21 23 25 10 10 12 8 7 3 2 3 4 4 3 0 1 4 4 10 7 7 5 2 1 2 2 0 3 2 1 4 12
21 21 22 21 18 15 13 13 14 15 17 18 17 19 22 17 7 7 2 4 6 2 1 0 3 3 4 1 3 4 6 4 5 5 5 2 3 2 2 4 7 7 5 7 12
20 21 21 21 23 21 17 14 13 14 15 17 18 18 19 2 8 4 5 4 2 1 2 2 2 5 4 6 4 2 6 5 4 3 3 3 2 3 5 6 2 1 5 9 15
21 20 20 22 23 23 23 19 15 14 14 16 17 17 7 4 12 8 6 3 3 2 3 4 4 5 6 5 6 4 3 5 6 3 4 4 6 5 8 10 4 3 7 11 11
22 22 21 21 23 24 22 25 21 16 15 15 15 15 2 11 5 9 7 2 2 2 3 4 6 5 4 4 6 3 4 4 4 4 4 4 4 5 7 5 10 7 10 10 13
17 20 22 22 21 23 25 23 24 23 16 16 15 6 10 23 7 13 10 6 3 3 3 4 2 4 5 3 4 1 2 4 5 4 6 6 9 12 12 3 7 10 9 10 13
22 22 19 21 22 22 23 25 25 24 23 16 15 4 15 8 8 14 12 9 7 5 3 2 3 1 3 2 4 3 1 1 4 8 5 8 12 9 5 9 14 9 9 9 11
18 20 21 22 22 22 24 27 26 24 25 18 7 4 13 7 6 13 9 7 4 2 5 2 3 4 2 6 2 1 4 6 8 10 3 6 7 8 1 7 9 8 9 9 9
20 20 19 21 21 24 24 27 26 20 8 6 6 3 5 7 5 4 6 11 4 2 1 4 2 4 3 7 10 7 5 5 6 3 4 4 12 12 7 4 9 9 9 9 9
22 21 20 21 21 21 16 9 6 4 5 13 10 10 5 4 4 3 3 7 5 4 8 5 6 15 11 11 4 5 5 7 4 3 5 8 10 16 8 4 11 12 9 11 14
24 23 22 20 20 20 6 3 8 9 16 19 23 22 15 4 4 7 8 8 11 16 7 4 21 9 8 7 6 5 7 6 3 3 5 4 12 15 8 10 11 15 13 13 8
22 24 22 19 20 9 2 8 8 13 12 13 17 16 16 15 17 18 9 6 8 17 19 21 2 12 13 8 15 12 13 6 4 1 2 4 8 12 7 7 10 11 17 14 14
23 21 19 17 9 0 3 3 9 9 10 16 10 11 13 8 16 15 17 9 8 23 13 15 9 16 9 18 15 16 8 5 3 3 4 2 8 7 7 10 7 11 13 19 19
21 21 15 15 4 1 5 5 5 2 11 8 3 1 2 18 2 21 13 14 13 9 12 11 14 11 12 12 16 7 9 13 5 2 3 3 3 7 3 8 14 17 13 13 13
23 23 20 6 2 3 4 4 2 2 9 7 2 3 6 18 18 3 17 5 6 8 5 8 3 17 16 4 15 8 8 7 5 3 4 9 8 6 8 11 10 9 6 7 8
20 17 14 3 6 5 4 3 5 7 14 6 11 5 7 11 16 7 23 25 18 16 18 5 4 3 6 8 5 6 10 3 2 1 11 3 8 17 9 9 10 9 4 5 6
21 18 7 4 4 6 3 1 6 5 14 25 15 28 11 14 11 17 16 27 29 10 11 13 9 14 7 10 10 8 13 8 9 5 3 1 11 10 13 16 7 7 7 6 6
19 3 3 4 6 4 3 5 7 6 6 13 22 16 6 10 6 16 15 21 22 17 6 12 13 4 7 6 15 9 13 9 8 2 3 6 9 10 15 16 8 10 8 10 7
1 3 5 7 8 4 3 13 8 10 14 12 15 8 24 25 11 16 11 9 21 23 5 3 0 6 7 5 3 14 11 7 2 6 5 6 7 9 8 9 5 4 8 7 4
0 3 3 4 4 2 6 8 6 14 17 7 15 10 18 22 15 11 6 3 5 20 20 2 3 3 7 12 19 6 14 5 7 5 7 2 9 10 17 6 4 5 8 7 7
2 3 2 5 3 1 4 7 7 13 14 12 12 17 22 27 10 4 11 4 8 6 24 11 2 3 12 3 2 6 9 6 9 10 2 3 9 3 4 8 4 3 5 4 5
3 3 2 3 4 4 4 6 6 7 15 5 11 11 10 8 9 3 8 4 7 8 2 15 8 2 5 4 2 17 10 23 4 5 12 8 8 4 6 7 7 2 6 6 5
3 3 2 4 3 6 3 7 6 6 13 15 16 18 10 5 4 3 3 1 5 4 16 2 4 19 15 14 5 3 17 19 12 4 12 17 2 3 4 7 8 7 6 8 6
3 4 5 4 6 9 10 4 5 6 8 5 6 11 5 4 3 2 3 4 1 7 4 4 7 7 16 8 15 9 10 10 20 25 9 11 6 7 2 1 3 5 5 7 7
4 2 1 3 0 8 13 10 16 16 7 10 10 11 11 3 7 4 7 4 2 2 4 1 4 7 6 6 7 5 13 14 14 21 16 4 5 2 2 4 5 7 5 5 6
3 3 4 8 4 6 11 16 13 10 9 16 9 7 10 15 1 2 3 3 1 4 4 4 3 4 5 10 10 13 9 14 19 4 21 10 7 3 4 6 5 5 6 6 6
Wind_Direction
333 335 336 332 334 336 339 335 335 335 333 335 337 338 338 332 324 313 259 231 206 243 245 280 66 98 52 83 40 142 74 202 211 160 241 350 11 1 292 157 168 341 166 51 130
2 347 330 325 317 315 326 326 328 329 331 330 331 335 337 336 312 268 241 248 241 266 266 202 143 125 81 202 21 107 152 214 204 192 203 283 169 280 17 15 237 265 88 105 142
4 1 2 352 321 308 310 314 320 323 325 325 329 333 336 336 323 259 72 244 256 245 244 258 121 125 132 133 193 182 209 220 249 216 161 215 264 197 153 254 223 207 173 160 165
354 354 350 348 349 335 302 305 307 313 320 324 323 329 332 319 272 360 342 320 296 148 174 163 143 131 152 174 181 211 238 192 265 231 168 213 298 279 190 223 253 221 157 168 177
350 349 348 343 344 340 337 304 295 296 307 313 324 323 350 300 251 304 336 359 105 131 223 197 161 147 182 186 144 208 246 204 261 265 279 337 253 242 257 249 226 45 158 185 192
337 332 336 336 335 332 336 338 305 291 292 301 310 314 299 265 273 339 340 325 255 203 229 188 214 197 170 184 166 208 226 266 274 260 234 222 276 136 260 242 228 205 213 206 203
335 329 326 329 331 331 329 326 329 302 285 291 296 295 254 250 297 297 313 306 279 217 225 230 237 180 145 174 201 172 296 306 244 219 245 156 283 230 236 229 239 224 220 230 223
335 337 328 324 325 327 322 318 315 323 294 281 289 280 263 259 274 262 275 271 291 250 251 238 210 194 196 204 50 162 112 248 266 164 251 148 257 262 227 203 245 238 242 230 236
322 323 320 329 325 318 318 317 316 302 301 278 285 224 270 308 250 260 207 210 212 270 279 312 151 201 131 126 57 351 206 211 307 195 149 189 261 251 190 190 256 249 245 229 241
316 316 317 318 315 316 313 321 307 289 292 254 219 272 259 252 239 238 199 184 202 147 219 196 88 194 187 168 205 171 202 232 221 216 179 226 269 270 264 257 259 262 254 250 243
310 311 313 317 312 316 326 334 341 326 239 207 196 221 267 245 284 249 200 136 145 195 184 226 182 210 192 201 204 167 168 187 218 232 178 223 253 265 265 215 274 268 243 246 247
308 308 308 312 307 309 336 294 278 312 287 243 244 243 237 92 292 295 156 171 185 202 152 195 229 195 167 204 187 167 184 216 276 210 182 270 265 263 254 245 212 244 254 242 243
307 303 301 307 308 311 246 271 337 348 260 238 229 237 223 219 232 239 196 181 194 201 195 209 232 173 176 185 204 214 206 173 183 110 232 328 274 259 263 248 248 234 242 253 233
299 297 296 299 312 144 313 305 354 7 266 258 209 248 215 211 241 197 193 187 210 209 195 238 223 187 185 211 189 222 142 138 140 77 233 100 283 276 259 262 249 250 229 239 244
296 294 282 283 228 235 292 3 359 46 272 270 171 132 227 196 152 204 172 207 197 175 164 213 169 170 212 202 180 213 157 193 180 161 23 203 290 263 278 272 259 253 238 230 236
298 280 287 295 98 215 41 29 27 241 257 310 65 187 155 206 241 19 184 193 146 177 257 213 209 186 195 140 177 134 92 63 62 103 272 198 183 230 219 215 246 242 220 238 244
309 297 279 180 240 142 97 6 18 232 320 292 343 238 216 198 220 252 193 199 188 187 204 133 203 264 145 117 148 163 137 35 24 17 236 314 194 250 249 253 233 261 249 248 310
301 301 267 227 181 132 91 177 222 250 293 300 328 334 213 180 215 221 201 210 215 207 176 193 196 187 187 181 163 177 165 156 181 204 213 138 232 252 236 263 257 256 246 271 274
307 292 262 204 168 115 175 196 215 238 259 287 314 309 244 188 203 196 235 218 214 206 179 197 232 125 190 142 145 189 200 162 103 23 82 216 284 281 250 257 239 240 231 245 250
9 299 253 202 149 146 202 244 226 232 264 273 287 270 286 291 182 183 206 221 224 217 123 292 228 210 166 119 220 183 155 150 329 141 228 267 279 242 299 271 236 220 231 231 199
220 242 288 120 128 163 216 230 230 235 242 222 264 273 284 292 224 186 216 33 298 203 222 194 178 296 147 206 178 149 184 182 116 152 170 203 256 214 224 266 295 223 201 222 174
187 255 272 119 182 222 237 197 224 258 262 262 267 255 259 275 253 254 197 49 342 284 198 200 148 173 214 202 250 192 181 156 179 218 229 153 266 343 284 272 278 311 105 112 131
224 251 296 120 198 219 287 273 212 247 261 256 252 228 293 280 262 130 56 350 13 10 266 190 194 144 14 328 267 199 207 201 116 87 204 179 255 339 36 36 17 143 73 79 98
261 261 296 223 145 174 187 264 247 248 251 251 256 269 247 284 295 125 84 303 331 20 28 58 208 216 212 214 125 226 208 205 197 161 203 217 257 78 26 19 24 37 57 84 88
220 241 188 231 231 224 230 234 254 267 228 249 268 268 176 217 295 263 155 187 43 1 44 46 46 338 237 261 194 197 208 201 209 223 188 206 182 284 111 58 77 72 49 86 91
251 237 183 259 219 209 226 223 235 259 230 267 248 267 279 251 222 269 202 194 116 79 82 18 52 344 1 294 322 317 214 194 215 229 243 128 216 230 141 79 77 93 105 91 108
206 232 187 256 227 211 219 227 237 245 237 246 254 270 275 234 307 192 42 92 162 148 133 149 111 33 325 358 317 252 240 218 219 187 219 202 188 152 157 142 154 156 115 106 109